Location: Isles
(49.3556°N, 4.2009°E)
Time: 14:01:45
(UTC+00:00)

Daily predictions for brighter satellites

Satellite Brightness Start Highest point End
(mag) Time Altitude Azimuth Time Altitude Azimuth Time Altitude Azimuth
Cosmos 1302 Rocket 4.0 20:14:58 10° NNW 20:20:12 83° ENE 20:25:26 10° SSE
Cosmos 2369 Rocket 4.4 20:16:55 10° NW 20:21:02 21° W 20:25:08 10° SSW
Cosmos 1603 3.9 20:20:02 10° SSW 20:25:43 80° WNW 20:31:30 10° NNE
Okean 1 3.2 20:22:48 10° S 20:26:39 71° E 20:30:34 10° NNE
SL-8 R/B 3.7 20:22:00 10° W 20:26:46 81° S 20:31:32 10° E
Cosmos 1340 2.5 20:26:19 10° N 20:29:42 63° ENE 20:33:03 10° SSE
Cosmos 1726 3.1 20:27:00 10° NNW 20:29:55 36° W 20:32:46 10° SSW
SPOT 5 2.7 20:26:32 10° SSE 20:30:57 80° WSW 20:35:18 10° NNW
IRS-1A Rocket 4.3 20:25:37 10° SSE 20:31:11 85° ENE 20:36:44 10° NNW
Cosmos 1626 3.9 20:30:03 10° ESE 20:31:41 13° E 20:33:20 10° NE
Cosmos 1975 3.7 20:34:26 10° N 20:38:03 34° ENE 20:41:27 11° SE
Spot 2 Rocket 3.7 20:34:37 10° SSE 20:39:34 63° ENE 20:44:35 10° N
Landsat 4 3.7 20:37:55 10° SSE 20:41:20 59° ENE 20:44:47 10° N
Cosmos 44 Rocket 4.2 20:37:07 10° NNW 20:41:51 42° NE 20:46:26 10° ESE
NOSS 8 (A) 4.5 20:40:18 10° SW 20:44:15 84° NW 20:47:22 10° NE
Resurs 01 Rocket 4.1 20:41:32 10° SW 20:44:44 19° W 20:47:57 10° NW
Okean O Rocket 3.8 20:41:41 10° SW 20:45:11 23° W 20:48:42 10° NW
Meteor 2-10 4.3 20:43:49 10° NNW 20:49:14 71° W 20:54:26 10° S
Cosmos 1743 Rocket 3.7 20:45:55 10° NNW 20:50:22 79° W 20:54:49 10° S
Landsat 5 4.4 20:48:24 10° NE 20:51:38 26° E 20:54:16 13° SSE
NOSS 3-3 (C) 4.0 20:47:19 10° SSW 20:52:27 47° ESE 20:58:28 10° NE
Cosmos 1536 4.2 20:50:43 10° NNW 20:54:19 35° W 20:57:55 10° SSW
Cosmos 1733 3.6 20:55:35 10° NNW 20:59:01 53° W 21:02:25 10° S
Meteor 1-19 Rocket 4.4 20:53:16 10° SSW 20:59:05 82° WNW 21:04:45 10° N
Cosmos 1151 Rocket 3.0 20:54:53 10° S 20:59:13 76° E 21:03:32 10° NNE
Ariane Rocket 3.0 20:58:00 11° SSE 21:02:57 88° WSW 21:08:05 10° NNW
USA 234 4.2 20:57:21 10° ENE 21:03:41 52° NNW 21:09:58 10° W
Cosmos 220 Rocket 3.9 21:02:04 10° SSW 21:06:24 87° ESE 21:10:43 10° NNE
USA 59 Rocket 1.0 21:03:39 10° NW 21:07:28 41° SW 21:12:00 13° SSE
Terra 2.1 21:04:47 10° S 21:09:27 65° WSW 21:14:10 10° NNW
Cosmos 1674 4.4 21:08:14 13° ESE 21:09:31 15° E 21:11:37 10° NE
Cosmos 1697 Rocket 3.2 21:04:59 10° NNW 21:10:29 50° NE 21:15:08 14° SE
Cosmos 1428 Rocket 4.4 21:05:47 10° S 21:11:51 73° E 21:17:56 10° NNE
ERS-1 Rocket 3.5 21:07:30 10° S 21:12:25 55° W 21:17:22 10° NNW
Cosmos 614 Rocket 4.1 21:08:31 10° SSW 21:13:43 81° WNW 21:18:59 10° NNE
IRIDIUM 103 4.4 21:12:21 10° N 21:17:34 67° E 21:21:48 16° SSE
Orbus 7S? 4.3 21:12:45 10° SSW 21:18:13 33° SE 21:21:18 10° ENE
Cosmos 1980 Rocket 3.4 21:15:47 10° NNW 21:20:58 34° NE 21:25:57 11° ESE
Lacrosse 5 rocket 2.5 21:17:34 10° NW 21:21:36 40° NNE 21:25:30 10° E
Cosmos 1328 Rocket 3.7 21:19:14 16° S 21:22:36 56° E 21:26:49 10° NNE
SPOT 3 Rocket 3.8 21:19:41 12° S 21:24:20 65° WSW 21:29:29 10° NNW
ARIANE 5 R/B 3.8 21:24:52 15° ESE 21:27:42 29° ENE 21:31:27 10° N
Cosmos 1818 3.7 21:22:36 10° SW 21:28:04 84° NW 21:33:36 10° NE
Cosmos 1092 Rocket 4.0 21:26:09 11° S 21:32:19 80° E 21:38:41 10° NNE
Cosmos 1515 Rocket 4.3 21:32:35 21° SE 21:34:52 36° E 21:38:50 10° NNE
IRIDIUM 106 4.3 21:30:39 10° N 21:35:54 87° W 21:40:03 17° S
Cosmos 1066 Rocket 4.4 21:33:09 16° S 21:37:46 60° E 21:43:32 10° NNE
Meteor 2-4 Rocket 4.0 21:35:19 10° SSW 21:41:15 80° WNW 21:47:12 10° N
Cosmos 1269 Rocket 4.0 21:38:25 10° SSW 21:43:41 85° WNW 21:49:00 10° NNE
Cosmos 1470 Rocket 3.5 21:40:44 10° N 21:45:12 77° E 21:47:51 24° SSE
CZ-2C R/B 4.4 21:41:35 10° NNE 21:45:42 35° E 21:47:41 23° SE
MOS 1 Rocket 4.4 21:41:45 12° SSW 21:46:23 46° W 21:51:37 10° NNW
Cosmos 1766 3.1 21:42:41 10° N 21:46:28 84° E 21:48:29 26° SSE
Cosmos 1633 Rocket 3.3 21:42:37 10° NNW 21:47:01 66° W 21:50:02 20° S
MetOp-A 4.0 21:43:44 19° S 21:47:09 72° WSW 21:52:17 10° NNW
Cosmos 2251 Rocket 4.3 21:50:21 22° SSE 21:52:48 34° ESE 21:57:32 10° NE
Cosmos 1666 Rocket 4.3 21:49:45 10° NNW 21:53:53 46° W 21:56:58 17° SSW
Lacrosse 4 Rocket 3.2 21:50:44 10° WNW 21:53:53 21° WSW 21:56:23 13° SSW
USA 281 3.3 21:50:16 20° SSE 21:55:06 74° WSW 22:01:44 10° NNW
Cosmos 1833 Rocket 2.6 21:50:13 10° SSW 21:55:48 77° ESE 22:01:26 10° NNE
DELTA 2 R/B (1) 4.3 21:54:40 10° WSW 21:59:29 30° S 22:01:39 23° SE
SL-16 R/B 4.2 21:57:34 10° N 22:01:56 22° NE 22:06:17 10° E
Cosmos 1470 2.8 21:58:21 10° N 22:02:01 59° ENE 22:03:31 32° SE
H-2A R/B 3.3 22:01:47 23° SE 22:04:00 40° ENE 22:08:02 10° N
Cosmos 1626 3.0 22:02:28 14° SW 22:04:51 37° WNW 22:07:54 10° N
COSMOS 2406 4.4 22:03:23 21° SE 22:05:23 25° ESE 22:09:59 10° NE
NOSS 3-3 (A) 4.4 22:03:13 10° WSW 22:08:46 63° NW 22:15:19 10° NE
SL-8 R/B 4.0 22:04:26 10° W 22:09:00 47° SSW 22:11:05 28° SSE
Cosmos 1933 Rocket 3.6 22:05:42 10° N 22:10:05 73° ENE 22:12:14 30° SSE
Cosmos 1023 Rocket 4.4 22:06:26 18° SSW 22:10:21 77° ESE 22:15:35 10° NNE
Cosmos 1908 3.5 22:07:10 10° N 22:10:40 49° ENE 22:11:54 33° SE
Meteor 2-12 Rocket 4.4 22:06:18 20° S 22:10:44 81° E 22:16:56 10° NNE
Cosmos 2082 Rocket 3.0 22:09:01 24° SSE 22:11:21 33° ESE 22:16:24 10° NE
GEOS 3 Rocket 3.7 22:08:10 10° NE 22:13:16 55° SE 22:16:53 19° SSW
Cosmos 1140 Rocket 3.4 22:12:53 19° SSW 22:16:44 82° ESE 22:21:59 10° NNE
Cosmos 1607 4.0 22:16:33 10° SW 22:23:01 89° NW 22:29:34 10° NE
Cosmos 44 Rocket 4.1 22:18:46 10° NW 22:23:18 38° WSW 22:25:22 25° SSW
NOSS 3-4 (A) 3.9 22:18:03 10° NW 22:24:52 72° SW 22:29:54 24° SSE
NOSS 3-4 (C) 3.9 22:18:09 10° NW 22:24:59 72° SW 22:30:01 24° SSE
MINOTAUR 4 R/B 3.4 22:25:45 10° NNE 22:28:43 87° E 22:29:16 56° S
ALOS 2 3.2 22:33:06 27° SE 22:35:08 46° ENE 22:39:21 10° N
Cosmos 1707 2.5 22:34:34 37° SSW 22:35:54 78° W 22:39:33 10° N
Cosmos 1300 3.9 22:32:50 10° N 22:36:00 29° ENE 22:37:04 24° ESE
Meteor 1-13 Rocket 4.3 22:34:13 27° S 22:37:33 72° E 22:43:23 10° NNE
Cosmos 724 4.4 22:35:32 10° SW 22:41:27 79° NW 22:47:19 10° NE
Cosmos 1346 Rocket 4.3 22:38:53 10° N 22:42:12 26° ENE 22:43:46 20° ESE
Cosmos 1674 3.5 22:41:48 23° SW 22:43:28 39° WNW 22:46:48 10° N
Cosmos 540 Rocket 3.6 22:39:04 10° NNW 22:44:15 68° ENE 22:46:54 29° SE
USA 234 4.3 22:39:52 10° ENE 22:46:04 47° N 22:52:16 10° WNW
Cosmos 1441 Rocket 2.9 22:43:25 10° NNW 22:47:00 80° W 22:47:53 48° S
Cosmos 2278 4.5 22:43:25 10° NNW 22:48:57 47° NE 22:53:03 18° ESE
SL-08 ROCKET BODY 4.4 22:45:44 27° S 22:49:17 80° E 22:55:28 10° NNE
Cosmos 1763 Rocket 3.5 22:44:20 10° NNW 22:49:40 83° WSW 22:52:08 32° SSE
Meteor 1-22 Rocket 4.1 22:44:52 10° N 22:50:16 86° E 22:53:00 31° SSE
Cosmos 1400 Rocket 3.3 22:50:08 37° SE 22:51:05 46° E 22:54:52 10° NNE
S3M 4.1 22:44:42 10° NNW 22:51:07 78° W 22:54:44 28° S
CZ-3 Stage 3 4.3 22:31:33 10° WSW 22:51:55 29° SSW 22:55:13 25° SSE
Cosmos 468 Rocket 4.1 22:48:49 10° NNW 22:54:08 76° ENE 22:56:45 30° SSE
Cosmos 1697 Rocket 3.8 22:49:19 10° NW 22:54:13 31° WSW 22:56:51 21° SSW
Cosmos 2322 Rocket 3.7 22:51:20 10° NNW 22:56:20 31° NE 23:01:19 10° ESE
In-Cosmos 22 4.2 22:54:37 28° S 22:57:47 89° E 23:03:29 10° NNE
Cosmos 1842 4.5 22:56:11 20° SW 22:58:06 33° WNW 23:01:28 10° N
Lacrosse 5 rocket 1.3 22:56:00 10° WNW 23:00:08 60° SW 23:01:06 45° SSE
H-2A R/B 3.4 22:56:54 10° NE 23:00:37 26° E 23:01:43 24° ESE
Cosmos 407 Rocket 3.8 22:57:54 19° SW 23:01:37 65° WNW 23:06:49 10° NNE
Aureole 3 4.1 23:03:48 25° E 23:03:56 26° E 23:06:44 10° NNE
ARIANE 5 R/B 3.7 23:02:20 24° SW 23:04:02 33° W 23:07:57 10° NNW
Cosmos 1980 Rocket 2.6 22:59:40 10° NW 23:05:12 52° WSW 23:07:42 31° S
Cosmos 1455 4.2 23:05:46 10° NNE 23:08:08 17° ENE 23:09:30 14° E
Meteor 1-15 Rocket 4.3 23:03:20 10° NNW 23:08:55 69° W 23:11:34 32° S
Cosmos 676 Rocket 4.3 23:07:42 34° SSE 23:09:48 55° ESE 23:15:01 10° NNE
Cosmos 1954 Rocket 4.1 23:07:39 34° S 23:09:57 67° ESE 23:15:13 10° NNE
Cosmos 2315 Rocket 4.1 23:07:35 10° NNW 23:13:56 77° W 23:17:17 30° S
Cosmos 2333 Rocket 3.8 23:09:45 10° NNW 23:14:49 31° NE 23:19:53 10° ESE
Meteor 1-4 Rocket 4.3 23:16:13 15° E 23:16:13 15° E 23:17:53 10° NE
Cosmos 1190 Rocket 4.0 23:13:45 29° SSW 23:16:33 85° WNW 23:21:55 10° NNE
Cosmos 1733 Rocket 3.0 23:12:25 10° N 23:16:48 79° E 23:18:17 41° SSE
BREEZE-M DEB (TANK) 3.6 23:01:40 10° WSW 23:17:05 81° SSE 23:21:03 10° E
Cosmos 1953 3.8 23:13:55 10° NNE 23:17:18 27° ENE 23:18:50 21° ESE
ATLAS 2AS CENTAUR R/B 4.0 23:15:00 10° NW 23:21:28 39° NNE 23:27:42 10° E
SL-14 R/B 3.1 23:23:54 50° S 23:24:50 88° E 23:28:40 10° N
Cosmos 1356 Rocket 3.5 23:24:19 44° SSE 23:25:24 63° E 23:29:33 10° NNE
Okean 1-7 4.0 23:26:51 29° SE 23:28:07 36° E 23:32:06 10° NNE
Cosmos 2369 4.4 23:29:56 10° NW 23:35:14 40° WSW 23:37:24 29° SSW
H-2A R/B 4.1 23:37:47 21° WSW 23:39:05 24° W 23:42:35 10° NW
RESURS DK-1 3.8 23:37:38 10° NNW 23:41:21 33° NE 23:44:22 14° ESE
Cosmos 2228 Rocket 3.4 23:40:26 35° SW 23:42:12 62° WNW 23:46:43 10° N
Cosmos 2219 Rocket 3.9 23:37:59 10° NNW 23:42:55 29° NE 23:47:50 10° ESE
Cosmos 1758 4.0 23:41:03 10° NNW 23:44:40 40° W 23:45:30 35° SW
SL-16 R/B 2.2 23:41:08 10° NNW 23:46:51 89° ENE 23:49:56 28° SSE
Meteor 1-16 Rocket 4.3 23:42:12 10° NNW 23:48:00 90° W 23:50:56 32° S
COSMOS 2406 3.6 23:45:23 21° SW 23:49:15 63° WNW 23:54:59 10° NNE
USA 267 4.0 23:45:36 10° ENE 23:51:27 34° SE 23:53:37 28° SSE
SL-27 R/B 4.4 23:52:19 13° E 23:52:19 13° E 23:53:25 10° ENE
Meteor 2-10 Rocket 4.4 23:47:33 10° NNW 23:53:00 43° W 23:55:32 27° SW
